sat.trackr.live / text

‹ back to catalog

STARLINK-34157

NORAD 64084 · 2025-107W

PAYLOAD ACTIVE UNKNOWN

§ Identity

Operator
Country
US
Launch date
2025-05-21
Launch site
AFETR
Launch vehicle
Mass (kg)
RCS (m²)

Purposes: comms

External: N2YO · Heavens-Above · Gunter

§ Orbital elements

Epoch: 2026-09-20T11:30:35.752608Z

Period
94.27 min
Inclination
43.0010°
Eccentricity
0.0003060
Mean motion
15.27599250 rev/d
Perigee alt
480.9 km
Apogee alt
485.1 km
Semi-major
6,861.1 km
B*
2.7913e-5
RAAN
181.2466°
Arg perigee
262.6666°
Mean anomaly
97.3838°
Rev number
7,589

§ Raw data

STARLINK-341571 64084U 25107W   26263.47958047  .00000506  00000+0  27913-4 0  99962 64084  43.0010 181.2466 0003060 262.6666  97.3838 15.27599250 75895

JSON: /api/v1/satellites/64084 · /tle

For live sub-satellite position, see the globe view (requires WebGL).

§ Visibility from observer

Set your observer location to see the next 7 days of passes ≥ 10°. The values pass through the URL so the page stays shareable.

No JS? Fill the form by hand. The geolocation button needs JavaScript.